This is the latest recevied weather packets stored in our database for station/object N9CQL. If no packets are shown the sender has not sent any weather packets the latest 10 day(s).
| Time | Temp. | Humidity | Pressure | Rain* | Wind** | Luminosity | Snow |
|---|---|---|---|---|---|---|---|
| 1777744376 | 12.22° C | 40% | 1017.8 hPa | 0 mm | - | 814 W/m² | - |
| 1777744073 | 11.11° C | 42% | 1018.1 hPa | 0 mm | - | 936 W/m² | - |
| 1777743770 | 11.11° C | 41% | 1017.9 hPa | 0 mm | - | 209 W/m² | - |
| 1777743462 | 11.11° C | 39% | 1018 hPa | 0 mm | - | 181 W/m² | - |
| 1777743159 | 12.22° C | 39% | 1018.1 hPa | 0 mm | - | 189 W/m² | - |
| 1777742857 | 10.56° C | 41% | 1018 hPa | 0 mm | - | 848 W/m² | - |
| 1777742553 | 10.56° C | 42% | 1018.2 hPa | 0 mm | - | 164 W/m² | - |
| 1777742249 | 11.11° C | 40% | 1018.1 hPa | 0 mm | - | 181 W/m² | - |
| 1777741946 | 12.22° C | 40% | 1018.3 hPa | 0 mm | - | 191 W/m² | - |
| 1777741643 | 12.78° C | 40% | 1018.5 hPa | 0 mm | - | 847 W/m² | - |
| 1777741340 | 11.67° C | 42% | 1018.6 hPa | 0 mm | - | 467 W/m² | - |
| 1777741036 | 12.78° C | 41% | 1018.3 hPa | 0 mm | - | 207 W/m² | - |
| 1777740733 | 11.67° C | 42% | 1018.5 hPa | 0 mm | - | 743 W/m² | - |
| 1777740430 | 11.11° C | 43% | 1018.6 hPa | 0 mm | - | 855 W/m² | - |
| 1777740127 | 10.56° C | 44% | 1018.7 hPa | 0 mm | - | 815 W/m² | - |
| 1777739822 | 10.56° C | 43% | 1018.6 hPa | 0 mm | - | 920 W/m² | - |
| 1777739519 | 11.67° C | 43% | 1018.6 hPa | 0 mm | - | 106 W/m² | - |
| 1777739216 | 11.67° C | 43% | 1018.5 hPa | 0 mm | - | 850 W/m² | - |
| 1777738913 | 11.67° C | 41% | 1018.8 hPa | 0 mm | - | 764 W/m² | - |
| 1777738610 | 10.56° C | 42% | 1018.9 hPa | 0 mm | - | 718 W/m² | - |
| 1777738307 | 10.56° C | 46% | 1018.8 hPa | 0 mm | - | 764 W/m² | - |
| 1777738005 | 10.56° C | 46% | 1018.9 hPa | 0 mm | - | 125 W/m² | - |
| 1777737704 | 10.56° C | 44% | 1018.9 hPa | 0 mm | - | 832 W/m² | - |
| 1777737401 | 10° C | 44% | 1019 hPa | 0 mm | - | 837 W/m² | - |
| 1777737098 | 10° C | 44% | 1018.8 hPa | 0 mm | - | 92 W/m² | - |
* Rain latest hour (hover to see other rain measurements)
** Current wind speed in m/s (hover to see current wind gust speed)